Wind_Speed
10 11 10 8 7 6 4 4 4 3 2 3 4 5 6 7 8 9 10 11 11 12 13 14 14 14 13 13 12 11 11 9 8 7 7 7 7 8 9 9 10 10 11
11 11 10 8 7 6 5 4 3 3 3 3 4 5 6 7 8 9 10 11 11 12 13 14 14 14 13 13 12 11 11 10 8 7 6 6 6 7 8 9 9 10 11
11 11 10 9 7 6 5 4 4 4 4 4 4 5 6 7 8 9 10 11 11 12 13 14 14 14 13 13 13 12 11 10 8 7 5 5 5 6 7 8 9 9 11
12 11 11 9 8 6 5 4 4 3 3 4 4 5 6 8 9 9 10 11 12 12 13 14 14 14 13 13 13 12 11 10 9 7 6 4 4 4 6 7 8 9 10
12 11 10 9 7 6 5 5 4 4 4 4 5 6 7 8 9 10 10 11 12 12 13 14 14 13 13 13 12 12 12 11 9 8 6 5 3 3 5 6 7 9 10
11 10 9 8 7 6 6 5 4 4 5 5 5 6 7 8 9 10 10 11 12 12 13 13 13 13 13 12 12 12 12 11 10 8 7 6 4 4 4 5 7 8 9
11 9 8 7 6 6 6 5 4 4 5 5 6 6 7 8 9 9 10 10 11 12 12 12 13 13 13 12 12 12 12 11 10 9 8 6 5 4 4 5 6 7 8
10 9 8 7 6 6 6 5 5 4 5 5 6 6 7 8 9 9 10 10 10 11 12 12 12 13 13 13 12 12 12 12 11 10 8 7 6 5 5 6 7 8 8
10 9 8 7 7 6 6 5 5 5 5 6 6 7 8 8 9 10 10 10 10 11 12 12 12 12 13 13 13 13 13 12 11 10 10 9 8 7 7 7 6 7 8
10 9 8 7 7 6 6 5 5 6 6 6 6 7 8 9 9 10 10 10 11 11 12 12 12 12 13 13 13 13 13 12 11 11 10 10 9 9 8 9 9 9 9
9 8 8 7 6 6 6 6 6 6 6 7 7 8 8 9 10 10 10 10 11 11 12 12 12 13 13 13 13 13 14 13 12 12 11 11 10 10 10 10 10 10 10
8 8 8 7 7 7 7 7 7 7 7 7 8 9 9 10 10 11 11 11 11 12 13 13 13 13 14 14 14 14 14 13 13 13 12 12 12 12 12 12 12 12 12
8 7 7 7 7 7 7 7 7 8 8 8 9 10 10 11 11 12 13 13 13 14 14 14 15 15 15 15 16 15 15 15 14 14 14 14 14 14 14 14 14 14 14
8 8 7 7 7 7 7 8 9 9 9 10 11 11 12 13 13 14 14 15 15 15 15 16 16 16 17 17 17 17 17 17 17 17 17 17 16 16 16 16 16 17 17
8 8 8 8 8 8 9 9 10 11 11 12 12 13 14 14 15 15 16 16 17 17 18 18 18 18 19 19 19 19 19 19 19 19 19 19 19 19 18 18 18 18 19
9 9 9 9 9 10 10 11 12 13 13 14 14 15 16 16 17 18 18 19 19 20 20 20 21 21 21 22 22 22 21 21 22 22 21 21 21 21 21 20 20 20 21
11 11 11 11 12 12 12 13 14 15 16 16 17 18 18 19 20 20 21 21 22 22 23 23 23 23 24 24 24 25 25 25 24 24 24 24 24 24 24 23 23 23 23
12 12 13 13 14 14 15 16 17 18 18 19 20 20 21 21 22 23 24 24 25 25 25 26 26 26 26 27 27 27 27 26 26 26 26 26 26 26 26 25 25 25 25
13 14 14 15 16 16 17 18 19 20 21 21 22 22 23 23 24 25 26 27 27 28 28 28 29 29 29 29 29 29 29 28 28 28 28 28 28 28 28 28 28 27 28
15 15 16 16 17 18 19 20 22 22 23 24 24 25 26 26 27 28 29 30 30 31 31 31 31 32 32 31 31 31 31 31 31 31 31 31 31 31 31 31 31 31 31
17 18 18 19 19 20 21 23 24 24 25 26 27 28 29 30 31 31 32 32 33 33 33 33 34 34 34 34 34 34 34 34 34 34 34 34 34 34 35 35 34 34 34
19 20 20 21 22 23 24 25 26 26 27 28 30 31 32 33 33 34 34 35 35 35 35 36 36 37 37 37 37 37 37 37 37 37 37 38 38 38 38 38 38 38 38
22 22 23 24 25 26 27 28 28 29 30 31 32 33 34 34 35 36 36 37 37 38 38 38 39 39 40 40 41 41 41 40 40 40 41 41 41 41 41 42 42 42 41
25 26 26 27 28 29 30 30 31 32 32 33 34 35 35 36 37 38 38 39 40 40 41 41 42 42 43 43 44 44 44 44 44 44 44 44 45 45 45 45 45 45 45
28 29 29 30 31 32 33 33 33 34 35 36 37 37 38 39 39 40 41 42 43 44 44 44 45 46 46 46 47 47 47 47 48 48 48 48 48 48 49 49 49 48 48
30 31 31 32 33 34 34 35 35 36 37 38 39 39 40 41 42 43 44 45 45 46 46 47 48 48 49 49 50 50 50 51 51 51 51 51 51 52 51 51 51 51 51
Wind_Direction
197 199 204 205 205 204 213 224 229 248 284 308 323 329 333 336 338 341 344 346 348 348 349 348 348 348 348 347 346 343 339 332 322 306 288 273 263 258 248 239 233 230 228
195 199 200 199 203 211 219 230 236 250 279 301 313 325 331 335 340 343 346 348 349 350 351 352 351 351 350 350 349 347 345 341 334 323 303 282 267 256 245 238 234 231 230
195 194 199 203 208 214 224 233 245 256 273 294 313 324 331 338 343 345 345 347 348 350 352 353 354 354 354 353 353 351 349 347 344 336 322 300 283 264 245 238 236 234 233
194 194 200 204 208 216 227 236 247 257 278 297 316 326 330 338 342 342 344 346 348 349 351 353 355 355 356 356 355 355 353 353 353 349 339 321 295 271 254 245 242 241 236
195 196 201 205 212 223 230 238 254 270 285 298 310 319 327 333 337 339 342 346 348 349 350 353 354 355 356 357 357 357 358 357 357 356 351 341 317 284 264 256 251 245 239
199 198 202 208 219 228 231 239 253 268 286 298 307 316 324 329 333 337 340 343 345 346 349 351 353 355 355 355 357 357 357 358 358 358 355 348 334 307 279 267 259 251 242
200 203 209 217 227 230 232 238 257 273 285 294 304 315 322 328 332 336 338 341 343 346 350 352 353 355 355 355 355 356 356 356 356 355 352 346 335 319 294 280 270 258 248
203 205 209 217 227 228 231 243 259 280 295 302 310 317 321 325 330 334 336 338 341 345 348 350 352 353 354 353 353 354 354 354 355 354 349 343 333 319 306 293 279 267 257
202 204 207 217 229 230 236 248 260 282 298 303 308 313 317 321 326 330 332 334 336 340 342 344 347 348 349 350 351 351 350 349 349 348 344 340 332 322 311 301 290 277 265
201 207 215 223 224 229 242 253 268 280 290 298 303 310 314 319 325 328 329 329 331 333 336 338 340 342 345 346 348 348 348 347 344 342 340 336 329 321 312 302 295 286 278
211 218 223 231 231 241 251 264 275 279 285 295 302 307 312 316 320 325 326 325 326 327 329 331 333 335 337 338 340 341 342 341 339 337 332 329 324 317 310 303 296 290 284
215 220 228 230 238 250 259 268 276 284 289 294 300 307 310 312 314 317 317 318 321 323 323 323 325 326 329 331 332 332 333 334 331 329 327 324 319 315 309 302 298 293 289
216 222 228 234 245 254 260 267 277 284 289 293 297 302 305 306 307 310 311 312 315 316 317 317 318 319 321 323 324 324 324 324 323 321 319 317 314 311 307 301 296 293 290
227 233 236 242 251 258 267 274 278 282 285 289 294 297 300 302 303 305 306 309 310 311 311 313 314 315 316 317 318 318 318 317 316 313 313 311 309 307 304 300 294 291 289
236 240 245 252 259 267 273 277 279 281 282 287 292 296 299 300 301 303 304 305 306 308 308 309 309 308 309 310 311 312 313 312 311 309 307 305 305 303 301 299 294 291 288
243 249 254 257 264 271 275 279 282 284 285 287 290 294 296 298 300 302 304 303 303 304 304 305 305 306 305 305 306 306 306 306 306 305 303 302 301 300 298 296 293 290 287
247 253 260 264 268 271 273 279 283 285 285 285 287 290 294 297 299 301 302 301 300 300 301 302 303 303 304 305 305 304 303 303 302 301 300 299 298 296 294 292 289 287 286
253 257 263 269 273 272 274 280 284 285 286 286 288 289 292 295 298 299 300 299 298 298 298 299 300 301 301 302 303 302 301 300 299 299 299 298 296 294 292 290 288 285 283
259 263 268 273 276 276 278 282 284 285 286 286 287 289 292 294 295 296 297 298 298 297 296 297 298 298 298 299 298 299 298 298 298 298 297 296 295 293 291 289 287 284 281
263 269 274 278 280 280 281 284 286 287 287 287 287 289 291 292 293 294 295 295 295 295 295 296 297 297 296 296 296 296 296 296 295 295 294 294 294 292 291 289 286 284 281
268 273 277 280 282 283 284 286 288 288 288 288 287 288 289 290 292 293 294 295 295 295 294 295 295 295 294 295 295 294 294 294 293 293 292 292 292 291 290 288 286 283 281
272 276 279 282 285 287 287 287 288 288 288 288 289 289 289 291 292 293 293 294 295 295 295 294 293 293 293 293 293 293 293 292 291 290 290 291 290 289 288 287 285 283 281
275 279 282 284 286 288 289 289 289 289 289 290 291 291 291 292 293 293 294 295 295 295 294 294 293 292 292 292 292 292 292 291 290 290 289 289 289 288 287 286 285 283 281
278 280 282 283 285 287 289 290 290 290 291 292 292 292 292 292 293 294 294 295 295 295 294 294 293 292 292 291 292 291 290 290 290 289 289 289 288 288 287 286 284 282 280
278 280 281 282 284 287 288 289 290 291 291 292 292 293 293 293 293 294 294 295 294 294 294 294 294 293 292 291 291 290 289 289 289 289 288 288 288 287 286 285 283 281 279
278 279 281 282 284 286 287 289 290 292 293 292 293 293 293 293 294 294 294 294 294 294 294 295 294 293 293 292 291 290 289 289 289 288 288 287 287 286 285 284 282 280 278
Height
5859 5860 5862 5863 5864 5865 5866 5867 5867 5867 5868 5868 5867 5867 5866 5865 5864 5862 5860 5858 5856 5854 5852 5849 5846 5844 5841 5838 5836 5834 5832 5830 5829 5828 5828 5829 5829 5830 5831 5832 5834 5835 5837
5858 5860 5861 5863 5864 5865 5866 5866 5866 5867 5867 5867 5867 5866 5865 5864 5863 5861 5859 5858 5855 5853 5851 5848 5846 5843 5840 5838 5835 5833 5831 5829 5827 5827 5827 5827 5828 5828 5829 5830 5831 5833 5835
5857 5859 5860 5862 5863 5864 5865 5865 5866 5866 5866 5866 5866 5865 5864 5863 5862 5860 5859 5857 5855 5853 5850 5848 5845 5842 5840 5837 5834 5832 5830 5828 5827 5826 5826 5825 5826 5826 5827 5828 5830 5831 5833
5857 5858 5860 5861 5863 5863 5864 5864 5865 5865 5865 5865 5865 5864 5863 5862 5861 5859 5858 5856 5854 5852 5850 5847 5844 5842 5839 5837 5834 5832 5830 5828 5826 5825 5824 5824 5824 5825 5825 5827 5828 5829 5830
5856 5858 5859 5860 5862 5862 5863 5863 5864 5864 5864 5864 5864 5863 5862 5861 5860 5859 5857 5855 5853 5851 5849 5847 5844 5842 5839 5837 5834 5832 5830 5828 5826 5825 5824 5823 5823 5824 5824 5825 5826 5827 5828
5856 5857 5858 5860 5861 5861 5862 5863 5863 5863 5863 5863 5863 5862 5861 5860 5859 5858 5856 5854 5853 5851 5849 5846 5844 5841 5839 5837 5835 5832 5830 5828 5827 5825 5824 5823 5823 5823 5823 5823 5824 5825 5826
5855 5856 5858 5859 5859 5860 5861 5862 5862 5862 5862 5862 5861 5861 5860 5859 5858 5857 5855 5854 5852 5850 5848 5846 5844 5841 5839 5837 5835 5832 5830 5828 5827 5825 5824 5823 5823 5822 5822 5822 5823 5823 5824
5854 5855 5857 5858 5859 5859 5860 5860 5861 5861 5861 5861 5860 5860 5859 5858 5857 5856 5854 5853 5851 5849 5847 5845 5843 5841 5839 5837 5835 5832 5830 5828 5827 5825 5824 5823 5822 5822 5821 5821 5821 5821 5822
5853 5855 5856 5857 5858 5858 5859 5859 5859 5860 5860 5859 5859 5858 5858 5857 5855 5854 5853 5851 5850 5848 5846 5845 5843 5841 5838 5836 5834 5832 5830 5828 5826 5825 5824 5823 5821 5821 5820 5820 5820 5820 5820
5853 5854 5855 5856 5857 5857 5858 5858 5858 5858 5858 5858 5857 5857 5856 5855 5854 5853 5851 5850 5849 5847 5845 5844 5842 5840 5838 5836 5834 5832 5830 5828 5826 5824 5823 5822 5821 5820 5819 5819 5818 5818 5819
5852 5853 5854 5855 5855 5856 5856 5857 5857 5857 5857 5856 5856 5855 5854 5853 5852 5851 5850 5848 5847 5845 5844 5842 5841 5839 5837 5835 5833 5831 5828 5826 5825 5823 5822 5821 5819 5819 5818 5817 5817 5816 5816
5851 5852 5852 5853 5854 5854 5855 5855 5855 5855 5855 5854 5854 5853 5852 5851 5850 5849 5848 5846 5845 5843 5842 5840 5839 5837 5835 5833 5831 5829 5827 5825 5823 5822 5820 5819 5818 5817 5816 5815 5814 5814 5814
5850 5850 5851 5852 5852 5853 5853 5853 5853 5853 5852 5852 5851 5851 5850 5849 5848 5847 5846 5844 5843 5841 5840 5838 5836 5835 5833 5831 5829 5827 5825 5823 5821 5820 5818 5817 5815 5814 5813 5812 5811 5811 5810
5848 5849 5849 5850 5850 5850 5851 5851 5850 5850 5850 5849 5849 5848 5847 5847 5845 5844 5843 5841 5840 5838 5837 5835 5833 5832 5830 5828 5826 5824 5822 5820 5819 5817 5815 5813 5812 5811 5810 5808 5807 5807 5806
5846 5847 5847 5848 5848 5848 5848 5847 5847 5847 5846 5846 5846 5845 5844 5843 5842 5841 5839 5838 5836 5835 5833 5831 5830 5828 5826 5824 5822 5821 5819 5817 5815 5813 5811 5809 5807 5806 5805 5804 5803 5802 5801
5844 5844 5845 5845 5845 5845 5844 5844 5843 5843 5842 5842 5842 5841 5840 5839 5838 5837 5835 5834 5832 5831 5829 5827 5825 5823 5821 5819 5818 5816 5814 5812 5810 5808 5806 5804 5802 5801 5799 5798 5797 5796 5795
5841 5841 5842 5842 5842 5841 5841 5840 5840 5839 5838 5838 5837 5837 5836 5835 5833 5832 5830 5829 5827 5826 5824 5822 5820 5818 5816 5814 5812 5810 5808 5806 5803 5801 5799 5797 5796 5794 5793 5792 5790 5789 5788
5838 5838 5838 5838 5838 5837 5837 5836 5835 5834 5834 5833 5832 5831 5830 5829 5828 5826 5825 5823 5821 5820 5818 5816 5814 5812 5809 5807 5805 5803 5800 5798 5796 5794 5792 5790 5788 5786 5785 5784 5783 5782 5781
5834 5834 5834 5834 5833 5833 5832 5831 5830 5829 5828 5827 5827 5826 5825 5823 5822 5820 5818 5816 5815 5812 5810 5808 5806 5804 5802 5800 5797 5795 5793 5791 5789 5786 5784 5782 5780 5778 5776 5775 5774 5773 5773
5830 5830 5830 5829 5828 5828 5827 5826 5825 5824 5823 5821 5820 5819 5818 5816 5815 5813 5811 5809 5807 5804 5802 5800 5798 5796 5794 5791 5789 5787 5784 5782 5780 5778 5775 5773 5771 5769 5767 5766 5765 5764 5763
5826 5825 5825 5824 5823 5822 5821 5820 5819 5817 5816 5815 5813 5812 5810 5809 5807 5804 5802 5800 5798 5795 5793 5791 5789 5786 5784 5781 5779 5777 5775 5772 5770 5768 5766 5764 5761 5759 5757 5755 5754 5753 5752
5821 5820 5820 5819 5818 5816 5815 5813 5812 5811 5809 5807 5806 5804 5802 5800 5797 5795 5793 5790 5788 5785 5783 5780 5778 5776 5773 5771 5768 5766 5763 5761 5759 5757 5755 5753 5750 5748 5746 5744 5742 5741 5740
5815 5814 5813 5812 5811 5810 5808 5806 5805 5803 5801 5799 5797 5795 5792 5790 5788 5785 5783 5780 5777 5775 5772 5769 5767 5764 5761 5759 5756 5754 5751 5749 5747 5745 5743 5740 5738 5735 5733 5731 5729 5728 5727
5808 5807 5806 5805 5804 5802 5800 5799 5797 5794 5792 5790 5788 5785 5783 5780 5778 5775 5772 5769 5766 5763 5760 5757 5755 5752 5749 5746 5743 5740 5738 5735 5733 5731 5729 5726 5724 5721 5719 5717 5715 5713 5712
5800 5799 5798 5797 5795 5794 5792 5790 5788 5785 5783 5780 5778 5775 5772 5769 5766 5763 5760 5757 5754 5751 5748 5745 5741 5739 5736 5732 5729 5725 5723 5720 5718 5716 5714 5711 5708 5706 5703 5701 5699 5697 5696
5792 5791 5790 5788 5786 5784 5782 5780 5778 5775 5772 5770 5767 5764 5761 5758 5754 5751 5748 5744 5741 5737 5734 5730 5727 5723 5720 5716 5713 5710 5707 5704 5701 5699 5696 5694 5691 5689 5686 5684 5682 5680 5678